Time,TemperatureF,DewpointF,PressureIn,WindDirection,WindDirectionDegrees,WindSpeedMPH,WindSpeedGustMPH,Humidity,HourlyPrecipIn,Conditions,Clouds,dailyrainin,SoftwareType,DateUTC
2013-03-04 00:00:00,37.5,36.0,29.46,West,270,10.0,11.9,92,0.00,,,0.00,Rainwise IP-100,2013-03-04 05:00:00,
2013-03-04 00:05:00,37.5,36.0,29.46,West,270,7.2,13.3,92,0.00,,,0.00,Rainwise IP-100,2013-03-04 05:05:00,
2013-03-04 00:10:00,37.4,35.0,29.46,WNW,292,8.4,14.0,92,0.00,,,0.00,Rainwise IP-100,2013-03-04 05:10:00,
2013-03-04 00:15:00,37.4,35.0,29.46,NW,315,7.5,12.8,92,0.00,,,0.00,Rainwise IP-100,2013-03-04 05:15:00,
2013-03-04 00:20:00,37.4,35.0,29.46,WNW,292,9.1,13.1,92,0.00,,,0.00,Rainwise IP-100,2013-03-04 05:20:00,
2013-03-04 00:25:00,37.4,35.0,29.45,WNW,292,4.9,12.1,92,0.00,,,0.00,Rainwise IP-100,2013-03-04 05:25:00,
2013-03-04 00:30:00,37.3,35.0,29.46,WNW,292,7.5,11.0,92,0.00,,,0.00,Rainwise IP-100,2013-03-04 05:30:00,
2013-03-04 00:35:00,37.3,35.0,29.46,WNW,292,9.1,13.1,92,0.00,,,0.00,Rainwise IP-100,2013-03-04 05:35:00,
2013-03-04 00:40:00,37.2,35.0,29.46,WNW,292,5.1,13.8,92,0.00,,,0.00,Rainwise IP-100,2013-03-04 05:40:00,
2013-03-04 00:45:00,37.1,35.0,29.45,WNW,292,6.1,12.6,93,0.00,,,0.00,Rainwise IP-100,2013-03-04 05:45:00,
2013-03-04 00:50:00,37.1,35.0,29.46,West,270,9.3,13.1,93,0.00,,,0.00,Rainwise IP-100,2013-03-04 05:50:00,
2013-03-04 00:55:00,37.1,35.0,29.45,West,270,5.8,13.1,92,0.00,,,0.00,Rainwise IP-100,2013-03-04 05:55:00,
2013-03-04 01:00:00,37.2,35.0,29.46,NW,315,10.0,14.7,92,0.00,,,0.00,Rainwise IP-100,2013-03-04 06:00:00,
2013-03-04 01:05:00,37.3,35.0,29.46,NW,315,7.5,14.2,92,0.00,,,0.00,Rainwise IP-100,2013-03-04 06:05:00,
2013-03-04 01:10:00,37.3,35.0,29.46,West,270,7.9,13.1,91,0.00,,,0.00,Rainwise IP-100,2013-03-04 06:10:00,
2013-03-04 01:15:00,37.3,35.0,29.46,WNW,292,6.8,14.9,91,0.00,,,0.00,Rainwise IP-100,2013-03-04 06:15:00,
2013-03-04 01:20:00,37.2,35.0,29.46,West,270,8.2,13.5,91,0.00,,,0.00,Rainwise IP-100,2013-03-04 06:20:00,
2013-03-04 01:25:00,37.2,35.0,29.46,NW,315,11.7,15.4,91,0.00,,,0.00,Rainwise IP-100,2013-03-04 06:25:00,
2013-03-04 01:30:00,37.2,35.0,29.45,WNW,292,12.1,16.6,91,0.00,,,0.00,Rainwise IP-100,2013-03-04 06:30:00,
2013-03-04 01:35:00,37.1,35.0,29.46,WNW,292,8.9,15.6,91,0.00,,,0.00,Rainwise IP-100,2013-03-04 06:35:00,
2013-03-04 01:40:00,37.1,35.0,29.46,NW,315,7.9,14.0,91,0.00,,,0.00,Rainwise IP-100,2013-03-04 06:40:00,
2013-03-04 01:45:00,37.0,35.0,29.46,NW,315,8.9,14.9,91,0.00,,,0.00,Rainwise IP-100,2013-03-04 06:45:00,
2013-03-04 01:50:00,36.9,35.0,29.45,WNW,292,12.6,13.5,91,0.00,,,0.00,Rainwise IP-100,2013-03-04 06:50:00,
2013-03-04 01:55:00,36.9,35.0,29.45,NW,315,7.5,14.0,91,0.00,,,0.00,Rainwise IP-100,2013-03-04 06:55:00,
2013-03-04 02:00:00,36.8,35.0,29.46,WNW,292,11.4,15.9,91,0.00,,,0.00,Rainwise IP-100,2013-03-04 07:00:00,
2013-03-04 02:05:00,36.8,35.0,29.45,NW,315,8.2,11.4,91,0.00,,,0.00,Rainwise IP-100,2013-03-04 07:05:00,
2013-03-04 02:10:00,36.7,35.0,29.45,WNW,292,8.6,14.0,91,0.00,,,0.00,Rainwise IP-100,2013-03-04 07:10:00,
2013-03-04 02:15:00,36.6,35.0,29.45,WNW,292,7.9,13.8,91,0.00,,,0.00,Rainwise IP-100,2013-03-04 07:15:00,
2013-03-04 02:20:00,36.6,35.0,29.46,NW,315,7.0,11.4,91,0.00,,,0.00,Rainwise IP-100,2013-03-04 07:20:00,
2013-03-04 02:25:00,36.5,35.0,29.45,NW,315,7.9,11.7,91,0.00,,,0.00,Rainwise IP-100,2013-03-04 07:25:00,
2013-03-04 02:30:00,36.5,35.0,29.45,WNW,292,6.5,11.4,91,0.00,,,0.00,Rainwise IP-100,2013-03-04 07:30:00,
2013-03-04 02:35:00,36.4,33.0,29.46,NW,315,6.8,10.3,92,0.00,,,0.00,Rainwise IP-100,2013-03-04 07:35:00,
2013-03-04 02:40:00,36.4,33.0,29.45,NW,315,5.8,9.6,92,0.00,,,0.00,Rainwise IP-100,2013-03-04 07:40:00,
2013-03-04 02:45:00,36.3,33.0,29.45,NNW,337,8.2,11.0,92,0.00,,,0.00,Rainwise IP-100,2013-03-04 07:45:00,
2013-03-04 02:50:00,36.2,33.0,29.45,NW,315,8.6,11.2,92,0.00,,,0.00,Rainwise IP-100,2013-03-04 07:50:00,
2013-03-04 02:55:00,36.1,33.0,29.45,WNW,292,9.1,9.8,92,0.00,,,0.00,Rainwise IP-100,2013-03-04 07:55:00,
2013-03-04 03:00:00,35.9,35.0,29.45,WNW,292,6.8,13.3,93,0.00,,,0.00,Rainwise IP-100,2013-03-04 08:00:00,
2013-03-04 03:05:00,35.9,35.0,29.45,WNW,292,8.9,15.4,93,0.00,,,0.00,Rainwise IP-100,2013-03-04 08:05:00,
2013-03-04 03:10:00,35.9,35.0,29.45,NW,315,7.0,11.7,93,0.00,,,0.00,Rainwise IP-100,2013-03-04 08:10:00,
2013-03-04 03:14:00,35.9,35.0,29.45,WNW,292,6.5,13.3,93,0.00,,,0.00,Rainwise IP-100,2013-03-04 08:14:00,
2013-03-04 03:19:00,35.9,33.0,29.45,NW,315,8.6,12.8,92,0.00,,,0.00,Rainwise IP-100,2013-03-04 08:19:00,
2013-03-04 03:24:00,35.9,33.0,29.44,NW,315,8.2,12.8,92,0.00,,,0.00,Rainwise IP-100,2013-03-04 08:24:00,
2013-03-04 03:29:00,35.8,33.0,29.44,NW,315,8.2,13.5,92,0.00,,,0.00,Rainwise IP-100,2013-03-04 08:29:00,
2013-03-04 03:34:00,35.8,33.0,29.44,NW,315,7.2,14.5,91,0.00,,,0.00,Rainwise IP-100,2013-03-04 08:34:00,
2013-03-04 03:39:00,35.9,33.0,29.44,NW,315,11.4,12.4,91,0.00,,,0.00,Rainwise IP-100,2013-03-04 08:39:00,
2013-03-04 03:44:00,35.9,33.0,29.45,NNW,337,7.9,14.9,91,0.00,,,0.00,Rainwise IP-100,2013-03-04 08:44:00,
2013-03-04 03:49:00,35.9,33.0,29.44,NW,315,9.3,13.5,91,0.00,,,0.00,Rainwise IP-100,2013-03-04 08:49:00,
2013-03-04 03:54:00,35.9,33.0,29.45,NNW,337,8.6,14.5,91,0.00,,,0.00,Rainwise IP-100,2013-03-04 08:54:00,
2013-03-04 03:59:00,35.8,33.0,29.45,NW,315,7.2,16.6,91,0.00,,,0.00,Rainwise IP-100,2013-03-04 08:59:00,
2013-03-04 04:04:00,35.8,33.0,29.45,NNW,337,10.3,13.1,91,0.00,,,0.00,Rainwise IP-100,2013-03-04 09:04:00,
2013-03-04 04:09:00,35.8,33.0,29.44,NNW,337,11.7,16.6,91,0.00,,,0.00,Rainwise IP-100,2013-03-04 09:09:00,
2013-03-04 04:14:00,35.7,33.0,29.44,NW,315,9.8,17.3,91,0.00,,,0.00,Rainwise IP-100,2013-03-04 09:14:00,
2013-03-04 04:19:00,35.7,33.0,29.44,NW,315,10.0,16.6,91,0.00,,,0.00,Rainwise IP-100,2013-03-04 09:19:00,
2013-03-04 04:24:00,35.6,33.0,29.44,NW,315,9.6,17.0,91,0.00,,,0.00,Rainwise IP-100,2013-03-04 09:24:00,
2013-03-04 04:29:00,35.6,33.0,29.44,NW,315,14.7,16.3,91,0.00,,,0.00,Rainwise IP-100,2013-03-04 09:29:00,
2013-03-04 04:34:00,35.6,33.0,29.44,NW,315,15.2,15.6,91,0.00,,,0.00,Rainwise IP-100,2013-03-04 09:34:00,
2013-03-04 04:39:00,35.5,33.0,29.44,NW,315,10.5,15.9,91,0.00,,,0.00,Rainwise IP-100,2013-03-04 09:39:00,
2013-03-04 04:44:00,35.4,32.0,29.44,NW,315,8.4,18.0,91,0.00,,,0.00,Rainwise IP-100,2013-03-04 09:44:00,
2013-03-04 04:49:00,35.3,32.0,29.43,WNW,292,12.4,21.5,92,0.00,,,0.00,Rainwise IP-100,2013-03-04 09:49:00,
2013-03-04 04:54:00,35.3,32.0,29.43,NNW,337,9.3,20.8,91,0.00,,,0.00,Rainwise IP-100,2013-03-04 09:54:00,
2013-03-04 04:59:00,35.3,32.0,29.44,NW,315,12.1,16.3,91,0.00,,,0.00,Rainwise IP-100,2013-03-04 09:59:00,
2013-03-04 05:04:00,35.1,32.0,29.44,NW,315,9.3,19.8,91,0.00,,,0.00,Rainwise IP-100,2013-03-04 10:04:00,
2013-03-04 05:06:00,35.1,32.0,29.44,NW,315,8.6,19.8,92,0.00,,,0.00,Rainwise IP-100,2013-03-04 10:06:00,
2013-03-04 05:11:00,34.9,32.0,29.44,North,0,7.0,13.5,92,0.00,,,0.00,Rainwise IP-100,2013-03-04 10:11:00,
2013-03-04 05:13:00,34.8,32.0,29.44,NNW,337,8.2,14.2,92,0.00,,,0.00,Rainwise IP-100,2013-03-04 10:13:00,
2013-03-04 05:18:00,34.7,33.0,29.44,North,0,9.8,15.4,93,0.00,,,0.00,Rainwise IP-100,2013-03-04 10:18:00,
2013-03-04 05:23:00,34.6,33.0,29.44,NW,315,10.3,17.5,93,0.00,,,0.00,Rainwise IP-100,2013-03-04 10:23:00,
2013-03-04 05:28:00,34.5,33.0,29.44,NNW,337,11.4,17.3,94,0.00,,,0.00,Rainwise IP-100,2013-03-04 10:28:00,
2013-03-04 05:33:00,34.5,33.0,29.44,NW,315,12.4,15.9,94,0.00,,,0.00,Rainwise IP-100,2013-03-04 10:33:00,
2013-03-04 05:38:00,34.4,33.0,29.44,NW,315,11.0,15.9,94,0.00,,,0.00,Rainwise IP-100,2013-03-04 10:38:00,
2013-03-04 05:43:00,34.2,33.0,29.43,NW,315,15.6,15.6,94,0.00,,,0.00,Rainwise IP-100,2013-03-04 10:43:00,
2013-03-04 05:48:00,34.2,33.0,29.44,NW,315,6.1,16.1,94,0.00,,,0.00,Rainwise IP-100,2013-03-04 10:48:00,
2013-03-04 05:53:00,34.1,33.0,29.44,NW,315,10.0,18.4,95,0.00,,,0.00,Rainwise IP-100,2013-03-04 10:53:00,
2013-03-04 05:58:00,34.1,33.0,29.44,NW,315,8.9,20.3,95,0.00,,,0.00,Rainwise IP-100,2013-03-04 10:58:00,
2013-03-04 06:03:00,34.1,33.0,29.44,NW,315,14.2,14.5,95,0.00,,,0.00,Rainwise IP-100,2013-03-04 11:03:00,
2013-03-04 06:08:00,34.1,33.0,29.44,NW,315,14.0,18.2,94,0.00,,,0.00,Rainwise IP-100,2013-03-04 11:08:00,
2013-03-04 06:13:00,34.1,33.0,29.44,NW,315,12.6,17.5,94,0.00,,,0.00,Rainwise IP-100,2013-03-04 11:13:00,
2013-03-04 06:18:00,34.1,33.0,29.44,NNW,337,7.0,18.2,94,0.00,,,0.00,Rainwise IP-100,2013-03-04 11:18:00,
2013-03-04 06:23:00,34.1,33.0,29.44,NNW,337,5.4,18.2,94,0.00,,,0.00,Rainwise IP-100,2013-03-04 11:23:00,
2013-03-04 06:28:00,34.0,33.0,29.44,NNW,337,14.5,20.8,94,0.00,,,0.00,Rainwise IP-100,2013-03-04 11:28:00,
2013-03-04 06:33:00,34.0,33.0,29.45,NNW,337,11.0,18.7,94,0.00,,,0.00,Rainwise IP-100,2013-03-04 11:33:00,
2013-03-04 06:38:00,34.0,33.0,29.44,NW,315,11.0,15.4,94,0.00,,,0.00,Rainwise IP-100,2013-03-04 11:38:00,
2013-03-04 06:43:00,34.1,33.0,29.45,NW,315,10.0,16.6,94,0.00,,,0.00,Rainwise IP-100,2013-03-04 11:43:00,
2013-03-04 06:48:00,34.1,33.0,29.45,NW,315,7.9,16.6,94,0.00,,,0.00,Rainwise IP-100,2013-03-04 11:48:00,
2013-03-04 06:53:00,34.1,33.0,29.44,NW,315,10.3,14.5,94,0.00,,,0.00,Rainwise IP-100,2013-03-04 11:53:00,
2013-03-04 06:58:00,34.1,33.0,29.45,NNW,337,5.8,16.8,93,0.00,,,0.00,Rainwise IP-100,2013-03-04 11:58:00,
2013-03-04 07:03:00,34.1,33.0,29.45,NW,315,13.1,19.1,93,0.00,,,0.00,Rainwise IP-100,2013-03-04 12:03:00,
2013-03-04 07:08:00,34.1,33.0,29.45,NW,315,9.3,17.0,93,0.00,,,0.00,Rainwise IP-100,2013-03-04 12:08:00,
2013-03-04 07:13:00,34.1,33.0,29.45,North,0,7.9,14.5,93,0.00,,,0.00,Rainwise IP-100,2013-03-04 12:13:00,
2013-03-04 07:18:00,34.1,33.0,29.45,NNW,337,12.1,19.1,93,0.00,,,0.00,Rainwise IP-100,2013-03-04 12:18:00,
2013-03-04 07:23:00,34.0,33.0,29.44,West,270,12.6,18.4,93,0.00,,,0.00,Rainwise IP-100,2013-03-04 12:23:00,
2013-03-04 07:28:00,34.1,33.0,29.45,NW,315,14.0,15.4,93,0.00,,,0.00,Rainwise IP-100,2013-03-04 12:28:00,
2013-03-04 07:33:00,34.1,33.0,29.45,NNW,337,13.8,17.7,93,0.00,,,0.00,Rainwise IP-100,2013-03-04 12:33:00,
2013-03-04 07:38:00,34.1,32.0,29.45,NW,315,13.1,19.4,92,0.00,,,0.00,Rainwise IP-100,2013-03-04 12:38:00,
2013-03-04 07:43:00,34.2,32.0,29.44,NW,315,11.2,18.2,92,0.00,,,0.00,Rainwise IP-100,2013-03-04 12:43:00,
2013-03-04 07:48:00,34.2,32.0,29.45,NNW,337,11.9,16.8,92,0.00,,,0.00,Rainwise IP-100,2013-03-04 12:48:00,
2013-03-04 07:53:00,34.3,32.0,29.45,NNW,337,4.7,18.2,92,0.00,,,0.00,Rainwise IP-100,2013-03-04 12:53:00,
2013-03-04 07:58:00,34.3,32.0,29.45,NW,315,14.0,20.1,92,0.00,,,0.00,Rainwise IP-100,2013-03-04 12:58:00,
2013-03-04 08:03:00,34.3,32.0,29.44,NNW,337,7.9,18.2,92,0.00,,,0.00,Rainwise IP-100,2013-03-04 13:03:00,
2013-03-04 08:08:00,34.3,32.0,29.45,NW,315,9.3,17.3,92,0.00,,,0.00,Rainwise IP-100,2013-03-04 13:08:00,
2013-03-04 08:13:00,34.3,32.0,29.44,NNW,337,18.7,18.7,91,0.00,,,0.00,Rainwise IP-100,2013-03-04 13:13:00,
2013-03-04 08:18:00,34.3,32.0,29.44,West,270,10.0,18.7,91,0.00,,,0.00,Rainwise IP-100,2013-03-04 13:18:00,
2013-03-04 08:23:00,34.4,32.0,29.44,NNW,337,16.1,19.8,91,0.00,,,0.00,Rainwise IP-100,2013-03-04 13:23:00,
2013-03-04 08:28:00,34.5,32.0,29.44,NNW,337,12.4,17.5,91,0.00,,,0.00,Rainwise IP-100,2013-03-04 13:28:00,
2013-03-04 08:33:00,34.6,32.0,29.44,NNW,337,17.0,19.1,91,0.00,,,0.00,Rainwise IP-100,2013-03-04 13:33:00,
2013-03-04 08:38:00,34.5,32.0,29.44,North,0,3.5,18.9,91,0.00,,,0.00,Rainwise IP-100,2013-03-04 13:38:00,
2013-03-04 08:43:00,34.6,32.0,29.44,NW,315,15.4,18.0,91,0.00,,,0.00,Rainwise IP-100,2013-03-04 13:43:00,
2013-03-04 08:48:00,34.4,32.0,29.43,NNW,337,13.8,21.5,91,0.06,,,0.01,Rainwise IP-100,2013-03-04 13:48:00,
2013-03-04 08:53:00,34.2,32.0,29.44,NNW,337,15.9,22.4,92,0.06,,,0.01,Rainwise IP-100,2013-03-04 13:53:00,
2013-03-04 08:58:00,34.0,32.0,29.44,NNW,337,12.1,18.7,92,0.00,,,0.01,Rainwise IP-100,2013-03-04 13:58:00,
2013-03-04 09:03:00,33.8,33.0,29.43,NNW,337,14.7,20.5,93,0.00,,,0.01,Rainwise IP-100,2013-03-04 14:03:00,
2013-03-04 09:08:00,33.8,33.0,29.43,WNW,292,11.4,19.1,93,0.00,,,0.01,Rainwise IP-100,2013-03-04 14:08:00,
2013-03-04 09:13:00,33.8,33.0,29.43,NNW,337,11.7,18.4,94,0.00,,,0.01,Rainwise IP-100,2013-03-04 14:13:00,
2013-03-04 09:18:00,33.8,33.0,29.43,NW,315,5.8,19.4,94,0.00,,,0.01,Rainwise IP-100,2013-03-04 14:18:00,
2013-03-04 09:23:00,33.8,33.0,29.43,NNW,337,15.6,23.6,95,0.00,,,0.01,Rainwise IP-100,2013-03-04 14:23:00,
2013-03-04 09:28:00,33.8,33.0,29.44,NW,315,11.0,19.1,95,0.00,,,0.01,Rainwise IP-100,2013-03-04 14:28:00,
2013-03-04 09:33:00,33.8,33.0,29.43,NNW,337,14.2,15.9,95,0.00,,,0.01,Rainwise IP-100,2013-03-04 14:33:00,
2013-03-04 09:38:00,33.8,33.0,29.43,NNW,337,11.4,17.3,95,0.00,,,0.01,Rainwise IP-100,2013-03-04 14:38:00,
2013-03-04 09:43:00,33.7,33.0,29.43,NW,315,14.7,15.9,95,0.00,,,0.01,Rainwise IP-100,2013-03-04 14:43:00,
2013-03-04 09:48:00,33.6,33.0,29.43,NNW,337,14.0,19.6,95,0.00,,,0.01,Rainwise IP-100,2013-03-04 14:48:00,
2013-03-04 09:53:00,33.6,33.0,29.43,NNW,337,9.8,17.7,95,0.00,,,0.01,Rainwise IP-100,2013-03-04 14:53:00,
2013-03-04 09:58:00,33.6,33.0,29.43,NNW,337,13.1,14.7,95,0.00,,,0.01,Rainwise IP-100,2013-03-04 14:58:00,
2013-03-04 10:03:00,33.7,33.0,29.44,NNW,337,10.7,19.6,96,0.00,,,0.01,Rainwise IP-100,2013-03-04 15:03:00,
2013-03-04 10:08:00,33.7,33.0,29.43,NNW,337,12.4,17.5,96,0.00,,,0.01,Rainwise IP-100,2013-03-04 15:08:00,
2013-03-04 10:13:00,33.7,33.0,29.43,NW,315,13.5,18.9,96,0.00,,,0.01,Rainwise IP-100,2013-03-04 15:13:00,
2013-03-04 10:18:00,33.7,33.0,29.43,NW,315,12.8,16.1,96,0.00,,,0.01,Rainwise IP-100,2013-03-04 15:18:00,
2013-03-04 10:23:00,33.7,33.0,29.43,NNW,337,11.4,16.1,96,0.00,,,0.01,Rainwise IP-100,2013-03-04 15:23:00,
2013-03-04 10:28:00,33.7,33.0,29.43,NW,315,9.3,16.6,96,0.00,,,0.01,Rainwise IP-100,2013-03-04 15:28:00,
2013-03-04 10:33:00,33.7,33.0,29.43,NW,315,14.5,17.7,96,0.00,,,0.01,Rainwise IP-100,2013-03-04 15:33:00,
2013-03-04 10:38:00,33.6,33.0,29.43,North,0,9.3,19.4,96,0.00,,,0.01,Rainwise IP-100,2013-03-04 15:38:00,
2013-03-04 10:43:00,33.7,33.0,29.43,NW,315,9.8,20.8,96,0.00,,,0.01,Rainwise IP-100,2013-03-04 15:43:00,
2013-03-04 10:48:00,33.7,33.0,29.42,NNW,337,12.1,17.7,96,0.00,,,0.01,Rainwise IP-100,2013-03-04 15:48:00,
2013-03-04 10:53:00,33.7,33.0,29.42,NW,315,10.0,18.9,96,0.00,,,0.01,Rainwise IP-100,2013-03-04 15:53:00,
2013-03-04 10:58:00,33.8,33.0,29.42,NNW,337,13.1,18.7,96,0.00,,,0.01,Rainwise IP-100,2013-03-04 15:58:00,
2013-03-04 11:03:00,33.9,33.0,29.42,NW,315,13.5,17.3,96,0.00,,,0.01,Rainwise IP-100,2013-03-04 16:03:00,
2013-03-04 11:08:00,34.0,33.0,29.42,NNE,22,8.2,18.4,96,0.00,,,0.01,Rainwise IP-100,2013-03-04 16:08:00,
2013-03-04 11:13:00,34.1,33.0,29.43,NW,315,11.4,18.9,96,0.00,,,0.01,Rainwise IP-100,2013-03-04 16:13:00,
2013-03-04 11:18:00,34.2,33.0,29.43,NNW,337,12.8,16.8,96,0.06,,,0.02,Rainwise IP-100,2013-03-04 16:18:00,
2013-03-04 11:23:00,34.3,33.0,29.43,NW,315,10.0,16.8,96,0.06,,,0.02,Rainwise IP-100,2013-03-04 16:23:00,
2013-03-04 11:28:00,34.4,33.0,29.43,NNW,337,5.8,16.8,96,0.00,,,0.02,Rainwise IP-100,2013-03-04 16:28:00,
2013-03-04 11:33:00,34.5,33.0,29.42,NNW,337,11.4,16.6,96,0.00,,,0.02,Rainwise IP-100,2013-03-04 16:33:00,
2013-03-04 11:38:00,34.7,33.0,29.42,North,0,7.5,15.2,96,0.00,,,0.02,Rainwise IP-100,2013-03-04 16:38:00,
2013-03-04 11:43:00,34.9,33.0,29.43,NNW,337,6.5,14.0,96,0.00,,,0.02,Rainwise IP-100,2013-03-04 16:43:00,
2013-03-04 11:48:00,35.1,33.0,29.42,NNW,337,8.4,15.6,96,0.00,,,0.02,Rainwise IP-100,2013-03-04 16:48:00,
2013-03-04 11:53:00,35.3,33.0,29.42,NNW,337,15.2,20.3,95,0.00,,,0.02,Rainwise IP-100,2013-03-04 16:53:00,
2013-03-04 11:58:00,35.5,35.0,29.42,NNW,337,14.9,18.0,95,0.00,,,0.02,Rainwise IP-100,2013-03-04 16:58:00,
2013-03-04 12:03:00,35.6,35.0,29.42,NW,315,18.0,21.0,94,0.00,,,0.02,Rainwise IP-100,2013-03-04 17:03:00,
2013-03-04 12:08:00,35.6,35.0,29.42,NNW,337,10.7,19.8,94,0.00,,,0.02,Rainwise IP-100,2013-03-04 17:08:00,
2013-03-04 12:13:00,35.7,35.0,29.41,NW,315,12.1,16.8,94,0.00,,,0.02,Rainwise IP-100,2013-03-04 17:13:00,
2013-03-04 12:18:00,35.7,35.0,29.41,NNW,337,16.1,21.7,93,0.00,,,0.02,Rainwise IP-100,2013-03-04 17:18:00,
2013-03-04 12:23:00,35.4,33.0,29.41,NNW,337,15.2,22.2,93,0.00,,,0.02,Rainwise IP-100,2013-03-04 17:23:00,
2013-03-04 12:28:00,35.1,33.0,29.41,NNW,337,15.4,17.0,94,0.00,,,0.02,Rainwise IP-100,2013-03-04 17:28:00,
2013-03-04 12:33:00,35.0,33.0,29.42,NW,315,6.5,18.9,94,0.00,,,0.02,Rainwise IP-100,2013-03-04 17:33:00,
2013-03-04 12:38:00,35.0,33.0,29.41,NNW,337,14.9,16.3,95,0.00,,,0.02,Rainwise IP-100,2013-03-04 17:38:00,
2013-03-04 12:43:00,35.0,33.0,29.41,NW,315,13.8,17.5,95,0.00,,,0.02,Rainwise IP-100,2013-03-04 17:43:00,
2013-03-04 12:48:00,35.0,33.0,29.41,West,270,8.6,18.0,95,0.00,,,0.02,Rainwise IP-100,2013-03-04 17:48:00,
2013-03-04 12:53:00,35.0,33.0,29.42,NW,315,10.0,16.1,95,0.00,,,0.02,Rainwise IP-100,2013-03-04 17:53:00,
2013-03-04 12:58:00,35.1,33.0,29.41,NNW,337,7.5,15.9,95,0.00,,,0.02,Rainwise IP-100,2013-03-04 17:58:00,
2013-03-04 13:03:00,35.2,33.0,29.41,NW,315,12.4,14.9,95,0.00,,,0.02,Rainwise IP-100,2013-03-04 18:03:00,
2013-03-04 13:08:00,35.1,33.0,29.41,NNW,337,7.9,15.9,96,0.00,,,0.02,Rainwise IP-100,2013-03-04 18:08:00,
2013-03-04 13:13:00,35.1,33.0,29.41,NNW,337,8.6,15.9,96,0.00,,,0.02,Rainwise IP-100,2013-03-04 18:13:00,
2013-03-04 13:18:00,35.1,33.0,29.41,NW,315,11.2,14.2,96,0.00,,,0.02,Rainwise IP-100,2013-03-04 18:18:00,
2013-03-04 13:23:00,35.0,33.0,29.41,NW,315,14.7,15.4,96,0.00,,,0.02,Rainwise IP-100,2013-03-04 18:23:00,
2013-03-04 13:28:00,35.0,33.0,29.41,NW,315,9.3,16.3,96,0.00,,,0.02,Rainwise IP-100,2013-03-04 18:28:00,
2013-03-04 13:29:00,35.0,33.0,29.41,NW,315,9.1,16.3,96,0.00,,,0.02,Rainwise IP-100,2013-03-04 18:29:00,
2013-03-04 13:33:00,35.0,33.0,29.41,NNW,337,10.3,13.1,96,0.00,,,0.02,Rainwise IP-100,2013-03-04 18:33:00,
2013-03-04 13:38:00,35.1,33.0,29.41,NW,315,9.3,14.7,96,0.00,,,0.02,Rainwise IP-100,2013-03-04 18:38:00,
2013-03-04 13:43:00,35.0,33.0,29.41,NNW,337,7.5,14.2,97,0.06,,,0.03,Rainwise IP-100,2013-03-04 18:43:00,
2013-03-04 13:48:00,35.0,33.0,29.41,NNW,337,8.2,13.1,97,0.06,,,0.03,Rainwise IP-100,2013-03-04 18:48:00,
2013-03-04 13:53:00,35.0,33.0,29.41,NNW,337,7.0,16.1,97,0.00,,,0.03,Rainwise IP-100,2013-03-04 18:53:00,
2013-03-04 13:58:00,34.9,33.0,29.42,NW,315,9.3,14.5,97,0.00,,,0.03,Rainwise IP-100,2013-03-04 18:58:00,
2013-03-04 14:03:00,35.0,33.0,29.41,NNW,337,10.7,14.7,97,0.00,,,0.03,Rainwise IP-100,2013-03-04 19:03:00,
2013-03-04 14:08:00,35.1,33.0,29.42,NNW,337,9.8,14.0,97,0.00,,,0.03,Rainwise IP-100,2013-03-04 19:08:00,
2013-03-04 14:13:00,35.2,33.0,29.42,NNW,337,12.1,15.4,97,0.00,,,0.03,Rainwise IP-100,2013-03-04 19:13:00,
2013-03-04 14:18:00,35.2,33.0,29.42,North,0,9.3,17.0,97,0.00,,,0.03,Rainwise IP-100,2013-03-04 19:18:00,
2013-03-04 14:23:00,35.1,33.0,29.42,NW,315,11.2,17.0,97,0.00,,,0.03,Rainwise IP-100,2013-03-04 19:23:00,
2013-03-04 14:28:00,35.0,33.0,29.42,NNW,337,8.2,14.0,97,0.00,,,0.03,Rainwise IP-100,2013-03-04 19:28:00,
2013-03-04 14:33:00,35.0,33.0,29.42,NNW,337,12.1,15.6,97,0.00,,,0.03,Rainwise IP-100,2013-03-04 19:33:00,
2013-03-04 14:38:00,35.0,33.0,29.43,North,0,8.6,13.8,97,0.00,,,0.03,Rainwise IP-100,2013-03-04 19:38:00,
2013-03-04 14:43:00,35.0,33.0,29.42,North,0,11.2,15.9,97,0.00,,,0.03,Rainwise IP-100,2013-03-04 19:43:00,
2013-03-04 14:48:00,35.0,33.0,29.43,NNW,337,11.2,13.8,97,0.06,,,0.04,Rainwise IP-100,2013-03-04 19:48:00,
2013-03-04 14:53:00,35.1,33.0,29.43,NNW,337,9.1,14.7,97,0.06,,,0.04,Rainwise IP-100,2013-03-04 19:53:00,
2013-03-04 14:58:00,35.1,35.0,29.43,NW,315,7.0,14.7,98,0.00,,,0.04,Rainwise IP-100,2013-03-04 19:58:00,
2013-03-04 15:03:00,35.3,35.0,29.43,NNW,337,11.7,15.4,98,0.00,,,0.04,Rainwise IP-100,2013-03-04 20:03:00,
2013-03-04 15:08:00,35.4,35.0,29.43,NW,315,10.5,15.2,98,0.00,,,0.04,Rainwise IP-100,2013-03-04 20:08:00,
2013-03-04 15:12:00,35.6,36.0,29.43,NNW,337,9.1,15.2,98,0.00,,,0.04,Rainwise IP-100,2013-03-04 20:12:00,
2013-03-04 15:17:00,35.8,36.0,29.44,NNW,337,7.9,12.4,98,0.00,,,0.04,Rainwise IP-100,2013-03-04 20:17:00,
2013-03-04 15:22:00,36.0,36.0,29.44,NW,315,9.6,11.9,98,0.00,,,0.04,Rainwise IP-100,2013-03-04 20:22:00,
2013-03-04 15:27:00,36.2,36.0,29.44,NNW,337,1.6,11.9,98,0.00,,,0.04,Rainwise IP-100,2013-03-04 20:27:00,
2013-03-04 15:32:00,36.3,36.0,29.44,North,0,3.7,9.1,98,0.00,,,0.04,Rainwise IP-100,2013-03-04 20:32:00,
2013-03-04 15:37:00,36.4,36.0,29.45,NNW,337,4.2,9.8,98,0.00,,,0.04,Rainwise IP-100,2013-03-04 20:37:00,
2013-03-04 15:42:00,36.5,37.0,29.45,North,0,0.0,10.0,98,0.00,,,0.04,Rainwise IP-100,2013-03-04 20:42:00,
2013-03-04 15:47:00,36.5,37.0,29.45,NNW,337,2.6,4.9,98,0.00,,,0.04,Rainwise IP-100,2013-03-04 20:47:00,
2013-03-04 15:52:00,36.7,37.0,29.45,NW,315,0.0,8.9,98,0.00,,,0.04,Rainwise IP-100,2013-03-04 20:52:00,
2013-03-04 15:57:00,36.8,37.0,29.45,NNW,337,4.0,7.7,98,0.00,,,0.04,Rainwise IP-100,2013-03-04 20:57:00,
2013-03-04 16:02:00,36.9,37.0,29.45,NW,315,0.0,11.4,98,0.00,,,0.04,Rainwise IP-100,2013-03-04 21:02:00,
2013-03-04 16:07:00,36.7,37.0,29.45,North,0,0.0,6.8,98,0.00,,,0.04,Rainwise IP-100,2013-03-04 21:07:00,
2013-03-04 16:12:00,36.6,37.0,29.45,NNE,22,2.3,8.9,98,0.00,,,0.04,Rainwise IP-100,2013-03-04 21:12:00,
2013-03-04 16:17:00,36.5,37.0,29.45,NE,45,1.9,7.7,98,0.00,,,0.04,Rainwise IP-100,2013-03-04 21:17:00,
2013-03-04 16:22:00,36.5,37.0,29.45,NE,45,1.2,8.9,98,0.00,,,0.04,Rainwise IP-100,2013-03-04 21:22:00,
2013-03-04 16:27:00,36.5,37.0,29.46,NNW,337,5.1,7.9,98,0.00,,,0.04,Rainwise IP-100,2013-03-04 21:27:00,
2013-03-04 16:32:00,36.4,36.0,29.46,NNW,337,6.1,9.6,99,0.00,,,0.04,Rainwise IP-100,2013-03-04 21:32:00,
2013-03-04 16:37:00,36.4,36.0,29.46,North,0,1.4,8.2,99,0.00,,,0.04,Rainwise IP-100,2013-03-04 21:37:00,
2013-03-04 16:42:00,36.5,37.0,29.47,North,0,0.0,7.2,99,0.00,,,0.04,Rainwise IP-100,2013-03-04 21:42:00,
2013-03-04 16:47:00,36.5,37.0,29.46,ENE,67,0.0,6.8,99,0.00,,,0.04,Rainwise IP-100,2013-03-04 21:47:00,
2013-03-04 16:52:00,36.5,37.0,29.46,NNW,337,1.9,8.9,99,0.00,,,0.04,Rainwise IP-100,2013-03-04 21:52:00,
2013-03-04 16:57:00,36.5,37.0,29.47,North,0,0.0,6.8,99,0.00,,,0.04,Rainwise IP-100,2013-03-04 21:57:00,
2013-03-04 17:02:00,36.5,37.0,29.47,NW,315,6.3,6.3,99,0.00,,,0.04,Rainwise IP-100,2013-03-04 22:02:00,
2013-03-04 17:07:00,36.5,37.0,29.47,North,0,0.0,8.2,99,0.00,,,0.04,Rainwise IP-100,2013-03-04 22:07:00,
2013-03-04 17:12:00,36.4,36.0,29.47,NW,315,1.2,4.7,99,0.00,,,0.04,Rainwise IP-100,2013-03-04 22:12:00,
2013-03-04 17:17:00,36.3,36.0,29.48,NE,45,7.0,7.0,99,0.00,,,0.04,Rainwise IP-100,2013-03-04 22:17:00,
2013-03-04 17:22:00,36.3,36.0,29.48,NNW,337,2.3,9.3,99,0.00,,,0.04,Rainwise IP-100,2013-03-04 22:22:00,
2013-03-04 17:27:00,36.2,36.0,29.48,NNW,337,1.9,6.5,99,0.06,,,0.05,Rainwise IP-100,2013-03-04 22:27:00,
2013-03-04 17:32:00,36.1,36.0,29.49,South,180,1.6,7.2,99,0.06,,,0.05,Rainwise IP-100,2013-03-04 22:32:00,
2013-03-04 17:37:00,36.0,36.0,29.49,East,90,0.0,5.6,99,0.00,,,0.05,Rainwise IP-100,2013-03-04 22:37:00,
2013-03-04 17:42:00,36.0,36.0,29.49,North,0,0.0,4.0,99,0.00,,,0.05,Rainwise IP-100,2013-03-04 22:42:00,
2013-03-04 17:47:00,35.9,36.0,29.49,NNW,337,0.0,1.9,99,0.00,,,0.05,Rainwise IP-100,2013-03-04 22:47:00,
2013-03-04 17:52:00,35.8,36.0,29.49,East,90,1.9,7.0,99,0.00,,,0.05,Rainwise IP-100,2013-03-04 22:52:00,
2013-03-04 17:57:00,35.8,36.0,29.50,NNW,337,7.7,7.7,99,0.00,,,0.05,Rainwise IP-100,2013-03-04 22:57:00,
2013-03-04 18:02:00,35.7,36.0,29.50,NE,45,0.0,8.6,99,0.00,,,0.05,Rainwise IP-100,2013-03-04 23:02:00,
2013-03-04 18:07:00,35.7,36.0,29.50,North,0,1.6,8.9,99,0.06,,,0.06,Rainwise IP-100,2013-03-04 23:07:00,
2013-03-04 18:12:00,35.6,36.0,29.50,NW,315,1.2,11.7,99,0.06,,,0.06,Rainwise IP-100,2013-03-04 23:12:00,
2013-03-04 18:17:00,35.6,36.0,29.50,North,0,1.6,7.7,99,0.00,,,0.06,Rainwise IP-100,2013-03-04 23:17:00,
2013-03-04 18:22:00,35.6,36.0,29.51,NNW,337,2.6,8.9,99,0.00,,,0.06,Rainwise IP-100,2013-03-04 23:22:00,
2013-03-04 18:27:00,35.6,36.0,29.51,NE,45,1.6,8.6,99,0.00,,,0.06,Rainwise IP-100,2013-03-04 23:27:00,
2013-03-04 18:32:00,35.5,36.0,29.51,NW,315,6.5,7.7,99,0.00,,,0.06,Rainwise IP-100,2013-03-04 23:32:00,
2013-03-04 18:37:00,35.4,35.0,29.51,ESE,112,0.0,6.5,99,0.00,,,0.06,Rainwise IP-100,2013-03-04 23:37:00,
2013-03-04 18:42:00,35.3,35.0,29.51,NNW,337,6.3,9.1,99,0.00,,,0.06,Rainwise IP-100,2013-03-04 23:42:00,
2013-03-04 18:47:00,35.2,35.0,29.51,NNE,22,1.2,10.7,99,0.00,,,0.06,Rainwise IP-100,2013-03-04 23:47:00,
2013-03-04 18:52:00,35.1,35.0,29.51,NW,315,3.3,8.2,99,0.00,,,0.06,Rainwise IP-100,2013-03-04 23:52:00,
2013-03-04 18:57:00,35.0,35.0,29.51,NE,45,0.0,9.8,99,0.00,,,0.06,Rainwise IP-100,2013-03-04 23:57:00,
2013-03-04 19:02:00,34.9,35.0,29.52,NNE,22,1.2,8.9,99,0.00,,,0.06,Rainwise IP-100,2013-03-05 00:02:00,
2013-03-04 19:07:00,34.8,35.0,29.52,NW,315,2.6,6.5,99,0.00,,,0.06,Rainwise IP-100,2013-03-05 00:07:00,
2013-03-04 19:12:00,34.7,35.0,29.52,NNW,337,0.0,8.6,99,0.00,,,0.06,Rainwise IP-100,2013-03-05 00:12:00,
2013-03-04 19:17:00,34.7,35.0,29.52,NNW,337,5.4,6.5,99,0.00,,,0.06,Rainwise IP-100,2013-03-05 00:17:00,
2013-03-04 19:22:00,34.7,35.0,29.52,North,0,0.0,7.9,99,0.00,,,0.06,Rainwise IP-100,2013-03-05 00:22:00,
2013-03-04 19:27:00,34.7,35.0,29.53,SSE,157,0.0,7.9,100,0.00,,,0.06,Rainwise IP-100,2013-03-05 00:27:00,
2013-03-04 19:32:00,34.7,35.0,29.53,NNW,337,3.3,6.5,100,0.00,,,0.06,Rainwise IP-100,2013-03-05 00:32:00,
2013-03-04 19:37:00,34.7,35.0,29.53,North,0,2.1,6.3,100,0.00,,,0.06,Rainwise IP-100,2013-03-05 00:37:00,
2013-03-04 19:42:00,34.6,35.0,29.53,East,90,5.4,5.4,100,0.00,,,0.06,Rainwise IP-100,2013-03-05 00:42:00,
2013-03-04 19:47:00,34.6,35.0,29.53,NNW,337,0.0,5.4,100,0.00,,,0.06,Rainwise IP-100,2013-03-05 00:47:00,
2013-03-04 19:52:00,34.6,35.0,29.54,East,90,1.6,4.7,100,0.00,,,0.06,Rainwise IP-100,2013-03-05 00:52:00,
2013-03-04 19:57:00,34.5,35.0,29.54,NNW,337,1.2,6.1,100,0.00,,,0.06,Rainwise IP-100,2013-03-05 00:57:00,
2013-03-04 20:02:00,34.5,35.0,29.54,NNW,337,1.9,6.3,100,0.00,,,0.06,Rainwise IP-100,2013-03-05 01:02:00,
2013-03-04 20:07:00,34.5,35.0,29.54,North,0,0.0,2.8,100,0.00,,,0.06,Rainwise IP-100,2013-03-05 01:07:00,
2013-03-04 20:12:00,34.5,35.0,29.55,NNW,337,0.0,7.0,100,0.00,,,0.06,Rainwise IP-100,2013-03-05 01:12:00,
2013-03-04 20:17:00,34.6,35.0,29.54,NNE,22,1.4,4.7,100,0.00,,,0.06,Rainwise IP-100,2013-03-05 01:17:00,
2013-03-04 20:22:00,34.7,35.0,29.55,NE,45,5.6,13.1,100,0.06,,,0.07,Rainwise IP-100,2013-03-05 01:22:00,
2013-03-04 20:27:00,35.0,35.0,29.55,NE,45,13.1,14.2,100,0.06,,,0.07,Rainwise IP-100,2013-03-05 01:27:00,
2013-03-04 20:32:00,35.1,35.0,29.56,NNE,22,5.6,14.2,100,0.00,,,0.07,Rainwise IP-100,2013-03-05 01:32:00,
2013-03-04 20:37:00,34.9,35.0,29.56,NE,45,8.4,14.7,100,0.00,,,0.07,Rainwise IP-100,2013-03-05 01:37:00,
2013-03-04 20:42:00,34.8,35.0,29.56,ENE,67,8.2,14.7,100,0.00,,,0.07,Rainwise IP-100,2013-03-05 01:42:00,
2013-03-04 20:47:00,34.8,35.0,29.56,NE,45,9.6,12.6,100,0.00,,,0.07,Rainwise IP-100,2013-03-05 01:47:00,
2013-03-04 20:52:00,34.8,35.0,29.57,NE,45,7.9,14.7,100,0.00,,,0.07,Rainwise IP-100,2013-03-05 01:52:00,
2013-03-04 20:57:00,34.8,35.0,29.57,ENE,67,7.0,16.6,100,0.00,,,0.07,Rainwise IP-100,2013-03-05 01:57:00,
2013-03-04 21:02:00,35.0,35.0,29.57,NE,45,10.7,13.3,100,0.06,,,0.08,Rainwise IP-100,2013-03-05 02:02:00,
2013-03-04 21:07:00,35.2,35.0,29.57,NNE,22,5.4,14.9,100,0.12,,,0.09,Rainwise IP-100,2013-03-05 02:07:00,
2013-03-04 21:12:00,35.5,36.0,29.57,NE,45,13.3,15.6,100,0.06,,,0.09,Rainwise IP-100,2013-03-05 02:12:00,
2013-03-04 21:17:00,35.6,36.0,29.57,NNE,22,6.1,17.0,99,0.06,,,0.10,Rainwise IP-100,2013-03-05 02:17:00,
2013-03-04 21:22:00,35.8,36.0,29.58,NNW,337,5.4,15.6,99,0.12,,,0.11,Rainwise IP-100,2013-03-05 02:22:00,
2013-03-04 21:27:00,35.9,36.0,29.57,East,90,6.1,11.9,99,0.06,,,0.11,Rainwise IP-100,2013-03-05 02:27:00,
2013-03-04 21:32:00,36.0,36.0,29.57,NE,45,6.3,16.1,98,0.06,,,0.12,Rainwise IP-100,2013-03-05 02:32:00,
2013-03-04 21:37:00,36.1,36.0,29.58,NNE,22,7.0,17.0,98,0.12,,,0.13,Rainwise IP-100,2013-03-05 02:37:00,
2013-03-04 21:42:00,36.1,36.0,29.58,NE,45,11.4,18.2,98,0.06,,,0.13,Rainwise IP-100,2013-03-05 02:42:00,
2013-03-04 21:47:00,36.1,36.0,29.58,ENE,67,8.9,18.7,98,0.06,,,0.14,Rainwise IP-100,2013-03-05 02:47:00,
2013-03-04 21:52:00,36.1,36.0,29.59,ENE,67,4.9,14.7,98,0.06,,,0.14,Rainwise IP-100,2013-03-05 02:52:00,
2013-03-04 21:57:00,36.1,36.0,29.58,East,90,4.7,15.4,98,0.06,,,0.15,Rainwise IP-100,2013-03-05 02:57:00,
2013-03-04 22:02:00,36.1,36.0,29.59,NE,45,9.1,18.7,98,0.06,,,0.15,Rainwise IP-100,2013-03-05 03:02:00,
2013-03-04 22:07:00,36.1,36.0,29.59,NE,45,7.5,16.1,98,0.06,,,0.16,Rainwise IP-100,2013-03-05 03:07:00,
2013-03-04 22:12:00,36.1,36.0,29.59,NE,45,8.2,17.5,98,0.06,,,0.16,Rainwise IP-100,2013-03-05 03:12:00,
2013-03-04 22:17:00,36.2,35.0,29.60,ENE,67,9.3,18.2,97,0.06,,,0.17,Rainwise IP-100,2013-03-05 03:17:00,
2013-03-04 22:22:00,36.3,35.0,29.60,NE,45,14.5,18.2,97,0.06,,,0.17,Rainwise IP-100,2013-03-05 03:22:00,
2013-03-04 22:27:00,36.3,35.0,29.60,NE,45,10.0,18.4,97,0.00,,,0.17,Rainwise IP-100,2013-03-05 03:27:00,
2013-03-04 22:32:00,36.3,35.0,29.60,NE,45,10.5,21.9,97,0.06,,,0.18,Rainwise IP-100,2013-03-05 03:32:00,
2013-03-04 22:37:00,36.2,35.0,29.60,NE,45,10.3,19.8,97,0.06,,,0.18,Rainwise IP-100,2013-03-05 03:37:00,
2013-03-04 22:42:00,36.2,35.0,29.61,North,0,9.6,16.3,97,0.00,,,0.18,Rainwise IP-100,2013-03-05 03:42:00,
2013-03-04 22:47:00,36.2,36.0,29.61,NE,45,3.5,14.7,98,0.00,,,0.18,Rainwise IP-100,2013-03-05 03:47:00,
2013-03-04 22:52:00,36.1,36.0,29.61,East,90,7.5,17.3,98,0.00,,,0.18,Rainwise IP-100,2013-03-05 03:52:00,
2013-03-04 22:57:00,36.1,36.0,29.61,NE,45,8.4,14.9,98,0.00,,,0.18,Rainwise IP-100,2013-03-05 03:57:00,
2013-03-04 23:02:00,36.0,36.0,29.61,NNE,22,7.5,16.1,98,0.06,,,0.19,Rainwise IP-100,2013-03-05 04:02:00,
2013-03-04 23:07:00,36.0,36.0,29.61,NE,45,10.0,18.9,98,0.06,,,0.19,Rainwise IP-100,2013-03-05 04:07:00,
2013-03-04 23:12:00,36.0,36.0,29.62,NE,45,4.0,14.5,98,0.00,,,0.19,Rainwise IP-100,2013-03-05 04:12:00,
2013-03-04 23:17:00,36.1,36.0,29.62,NNE,22,6.8,15.2,98,0.00,,,0.19,Rainwise IP-100,2013-03-05 04:17:00,
2013-03-04 23:22:00,36.1,36.0,29.62,NE,45,8.9,14.7,98,0.00,,,0.19,Rainwise IP-100,2013-03-05 04:22:00,
2013-03-04 23:27:00,36.1,36.0,29.62,NE,45,4.0,16.3,98,0.00,,,0.19,Rainwise IP-100,2013-03-05 04:27:00,
2013-03-04 23:32:00,36.1,36.0,29.62,NE,45,4.4,14.5,98,0.00,,,0.19,Rainwise IP-100,2013-03-05 04:32:00,
2013-03-04 23:37:00,36.1,36.0,29.63,NE,45,3.0,15.9,98,0.00,,,0.19,Rainwise IP-100,2013-03-05 04:37:00,
2013-03-04 23:42:00,36.1,36.0,29.63,ENE,67,5.1,13.8,98,0.00,,,0.19,Rainwise IP-100,2013-03-05 04:42:00,
2013-03-04 23:47:00,36.1,36.0,29.63,North,0,1.6,14.5,98,0.00,,,0.19,Rainwise IP-100,2013-03-05 04:47:00,
2013-03-04 23:52:00,36.1,36.0,29.63,NE,45,14.7,17.5,98,0.06,,,0.20,Rainwise IP-100,2013-03-05 04:52:00,
2013-03-04 23:57:00,36.0,36.0,29.63,NNE,22,11.0,17.5,98,0.06,,,0.20,Rainwise IP-100,2013-03-05 04:57:00,